[[{"header":{"parameterUnit":"m.s-1","parameterCategory":2,"la1":30.2991,"la2":30.254,"lo1":-89.0895,"lo2":-89.0444,"dy":0.0017,"dx":0.0017,"nx":28,"ny":28,"refTime":"2025-08-09T03:00:00:Z","depth":"0","parameterNumber":2,"parameterNumberName":"U-component_of_CURRENTS"},"data":[0,0,0,0,0,0,0,0,0,0,0,0,0,0,0,0,0,0,0,0,0,0,0,0,0,0,0,0,0,0,0,0,0,0,0,0,0,0,0,0,0,0,0,0,0,0,0,0,0,0,0,0,0,0,0,0,0,0,0.2911,0.2912,0,0.2963,0.2964,0.2964,0.2958,0.2957,0.2956,0.2956,0.2965,0.2966,0.2967,0,0,0,0,0,0,0,0,0,0,0,0,0,0.2865,0.2865,0.2911,0.2912,0.2913,0.2963,0.2964,0.2965,0.2958,0.2957,0.2956,0.2955,0.2965,0.2966,0.2967,0,0,0,0,0,0,0,0,0,0,0,0,0,0.2896,0.2865,0.2911,0.2916,0.2917,0.2963,0.2964,0.2965,0.2958,0.2957,0.2956,0.2955,0.2964,0.2966,0.2967,0.2998,0,0,0.2971,0.2972,0,0,0,0,0,0,0,0,0.2895,0.2898,0.2915,0.2916,0.2917,0.2954,0.2951,0.2974,0.2958,0.2942,0.2956,0.2954,0.2959,0.2961,0.2972,0.2999,0.2999,0.2972,0.2972,0.2973,0.2973,0,0,0,0,0,0,0,0.2892,0.2896,0.2931,0.2916,0.2917,0.2936,0.2939,0.2956,0.2954,0.2943,0.2943,0.2951,0.2959,0.2971,0.2972,0.2999,0.2972,0.2973,0.2974,0.2974,0.313,0.3133,0,0,0,0,0,0,0.2886,0.2894,0.2929,0.2933,0.2904,0.2938,0.2941,0.2942,0.2955,0.2957,0.2952,0.295,0.2969,0.297,0.2972,0.3057,0.2973,0.2974,0.2975,0.3126,0.313,0.3134,0,0,0,0,0,0,0.2885,0.2889,0.2927,0.2916,0.2922,0.2939,0.2942,0.2944,0.2959,0.2962,0.2962,0.2964,0.2968,0.297,0.3006,0.3055,0.2975,0.2976,0.3122,0.3128,0.3132,0.3196,0,0,0,0,0,0,0.2883,0.2888,0.289,0.2915,0.2922,0.2964,0.2943,0.2946,0.2966,0.2964,0.2973,0.2973,0.2967,0.3004,0.3008,0.3056,0.2977,0.3118,0.3125,0.3131,0.319,0.3202,0.3213,0,0,0,0,0,0.2881,0.2893,0.289,0.2894,0.2923,0.2966,0.2972,0.298,0.2967,0.2986,0.2996,0.2973,0.3046,0.3008,0.3011,0.306,0.3115,0.3123,0.313,0.3184,0.32,0.3213,0,0,0,0,0,0,0.2875,0.2894,0.2891,0.2907,0.2937,0.2965,0.2983,0.2987,0.3011,0.3006,0.3002,0.3004,0.3058,0.3058,0.3015,0.313,0.3083,0.3091,0.3123,0.3138,0.3149,0.3146,0.2979,0,0,0,0,0,0.2874,0.2886,0.2912,0.2927,0.2941,0.2962,0.298,0.2988,0.3012,0.302,0.303,0.3054,0.3094,0.311,0.3137,0.319,0.3207,0.3233,0.3244,0.3254,0.3259,0.3344,0.3363,0.3158,0.3158,0.3158,0,0,0.2875,0.2889,0.2895,0.2927,0.2946,0.2987,0.297,0.3004,0.3041,0.3018,0.3069,0.3089,0.3118,0.3182,0.3208,0.3184,0.3324,0.3263,0.3271,0.327,0.3354,0.3373,0.3391,0.3163,0.3162,0.3161,0,0,0.2897,0.2897,0.292,0.295,0.2987,0.3007,0.3019,0.3055,0.3072,0.3126,0.313,0.3181,0.3227,0.3267,0.3292,0.3389,0.3382,0.3404,0.346,0.3543,0.356,0.3575,0.3621,0.364,0.3412,0.3412,0.3412,0,0.2899,0.2926,0.2937,0.2976,0.3005,0.3019,0.3062,0.3093,0.3138,0.3174,0.315,0.3269,0.3275,0.338,0.3408,0.3414,0.3447,0.3395,0.3556,0.3571,0.3586,0.363,0.3649,0.3416,0.3416,0.3415,0.3415,0,0.2945,0.297,0.2991,0.3041,0.3078,0.3116,0.3159,0.3201,0.322,0.3259,0.3355,0.3381,0.3456,0.3474,0.3461,0.3582,0.3567,0.3556,0.3511,0.361,0.365,0.367,0.3422,0.342,0.3419,0.3418,0,0,0.2941,0.3008,0.3014,0.3047,0.3112,0.3148,0.3221,0.3299,0.3357,0.341,0.3501,0.3569,0.3588,0.3618,0.3629,0.3686,0.3799,0.366,0.3663,0.3689,0.3968,0.3868,0.3878,0.3818,0.3822,0.3825,0.3954,0,0.2974,0.3043,0.3075,0.3152,0.3193,0.324,0.3311,0.3386,0.3441,0.3533,0.3593,0.3674,0.3646,0.3682,0.3747,0.3794,0.3854,0.3763,0.3883,0.3886,0.3771,0.3899,0.3685,0.3775,0.3972,0.3976,0.3978,0,0.3003,0.3049,0.3118,0.3208,0.3232,0.3286,0.3399,0.3467,0.3596,0.3642,0.3744,0.3785,0.39,0.3842,0.3995,0.3942,0.396,0.3979,0.3985,0.3879,0.3822,0.3711,0.3802,0.3674,0.4007,0.4005,0.4003,0,0.2986,0.3076,0.3128,0.316,0.3268,0.3318,0.3383,0.3504,0.3569,0.3716,0.3777,0.3922,0.3989,0.407,0.4104,0.4068,0.4244,0.4207,0.4136,0.4128,0.3962,0.3933,0.3925,0.4308,0.4308,0.4308,0.4307,0,0.3,0.3043,0.3123,0.3156,0.3233,0.3318,0.3413,0.3499,0.363,0.3728,0.3831,0.3928,0.4046,0.4148,0.4172,0.4223,0.4316,0.4172,0.4173,0.3978,0.395,0.384,0.3807,0.4312,0.4311,0.431,0.4309,0,0.2971,0.3021,0.3085,0.3191,0.3222,0.328,0.3401,0.3488,0.3602,0.3734,0.3784,0.3964,0.4105,0.4192,0.4324,0.4295,0.4223,0.4333,0.4075,0.4042,0.3826,0.3805,0.3716,0.3611,0.4297,0.4295,0.4294,0,0.2962,0.2992,0.3082,0.3129,0.3175,0.3261,0.3337,0.3457,0.3547,0.3751,0.3826,0.3993,0.41,0.4257,0.425,0.4296,0.4173,0.4093,0.3981,0.3808,0.3787,0.3664,0.3573,0.3794,0.3788,0.3784,0.3781,0,0.2961,0.2986,0.305,0.3122,0.3194,0.3252,0.3361,0.3404,0.3568,0.367,0.3821,0.3916,0.4057,0.4027,0.4069,0.4058,0.3871,0.4004,0.3911,0.347,0.3253,0.3152,0.3701,0.3743,0.3746,0.3749,0.3751,0.3753,0.2964,0.2994,0.3073,0.3134,0.3206,0.3243,0.325,0.3366,0.3454,0.3567,0.3732,0.3787,0.3803,0.384,0.3801,0.3559,0.3627,0.3413,0.3428,0.3339,0.3143,0.359,0.3575,0.3577,0.358,0.3582,0.3584,0,0.298,0.302,0.3088,0.3147,0.3187,0.3221,0.3277,0.3255,0.33,0.3419,0.3508,0.3457,0.3398,0.3352,0.3164,0.2999,0.2863,0.2903,0.2681,0.2645,0.3113,0.2992,0.2744,0.2744,0.2744,0.2744,0.2744,0.2744,0.3003,0.3057,0.3076,0.3114,0.3141,0.3106,0.3091,0.3062,0.3084,0.3035,0.2979,0.3018,0.3018,0.2918,0.2663,0.2569,0.2379,0.2252,0.2317,0.2635,0.2683,0.2728,0.2604,0.2279,0.2279,0.168,0.1675,0.1672]},{"header":{"parameterUnit":"m.s-1","parameterCategory":2,"la1":30.2991,"la2":30.254,"lo1":-89.0895,"lo2":-89.0444,"dy":0.0017,"dx":0.0017,"nx":28,"ny":28,"refTime":"2025-08-09T03:00:00:Z","depth":"0","parameterNumber":3,"parameterNumberName":"V-component_of_CURRENTS"},"data":[0,0,0,0,0,0,0,0,0,0,0,0,0,0,0,0,0,0,0,0,0,0,0,0,0,0,0,0,0,0,0,0,0,0,0,0,0,0,0,0,0,0,0,0,0,0,0,0,0,0,0,0,0,0,0,0,0,0,0.0211,0.0211,0,0.019,0.0189,0.0189,0.0168,0.0167,0.0167,0.0167,0.0124,0.0123,0.0122,0,0,0,0,0,0,0,0,0,0,0,0,0,0.0213,0.0213,0.0211,0.0211,0.0211,0.019,0.0189,0.0189,0.0168,0.0167,0.0167,0.0167,0.0124,0.0123,0.0122,0,0,0,0,0,0,0,0,0,0,0,0,0,0.0203,0.0213,0.0211,0.0199,0.0197,0.019,0.0189,0.0189,0.0168,0.0167,0.0167,0.0167,0.0124,0.0123,0.0122,0.0118,0,0,0.0117,0.0116,0,0,0,0,0,0,0,0,0.0203,0.0203,0.0201,0.02,0.0198,0.0182,0.0174,0.0164,0.0168,0.0178,0.0167,0.0167,0.0142,0.0139,0.0134,0.0116,0.0114,0.0117,0.0116,0.0115,0.0115,0,0,0,0,0,0,0,0.0204,0.0203,0.0202,0.0201,0.0199,0.0187,0.0185,0.0172,0.0161,0.0177,0.0176,0.0175,0.0141,0.0136,0.0133,0.0113,0.0117,0.0116,0.0115,0.0114,0.0078,0.0078,0,0,0,0,0,0,0.021,0.0204,0.0202,0.0201,0.0201,0.0187,0.0185,0.0187,0.0161,0.0158,0.0175,0.0174,0.0139,0.0135,0.0132,0.0133,0.0115,0.0114,0.0113,0.0078,0.0078,0.0078,0,0,0,0,0,0,0.0211,0.0211,0.0203,0.0203,0.0201,0.0188,0.0189,0.0186,0.0182,0.016,0.0156,0.0174,0.0138,0.0134,0.0123,0.0131,0.0113,0.0112,0.0078,0.0078,0.0078,0.0131,0,0,0,0,0,0,0.0211,0.0211,0.0214,0.0203,0.0201,0.0207,0.0189,0.0186,0.0183,0.0181,0.0158,0.0154,0.0138,0.0126,0.0122,0.0129,0.0111,0.0078,0.0078,0.0078,0.013,0.0133,0.0136,0,0,0,0,0,0.0211,0.0222,0.0214,0.0214,0.0206,0.0207,0.0205,0.0193,0.0183,0.0187,0.0169,0.0154,0.0122,0.0125,0.012,0.0127,0.0078,0.0078,0.0078,0.0128,0.0132,0.0136,0,0,0,0,0,0,0.0224,0.022,0.0212,0.022,0.0216,0.0204,0.0207,0.0197,0.0185,0.0182,0.0158,0.0152,0.0145,0.0126,0.013,0.0114,0.0096,0.0095,0.0136,0.0139,0.0142,0.0169,0.011,0,0,0,0,0,0.0228,0.0234,0.0227,0.0233,0.0233,0.0219,0.0217,0.0209,0.0198,0.0193,0.0177,0.0156,0.014,0.0133,0.0116,0.0111,0.0116,0.0109,0.0112,0.0115,0.0132,0.0151,0.0158,0.0078,0.0078,0.0078,0,0,0.0234,0.0233,0.0235,0.0235,0.023,0.0242,0.0217,0.0219,0.0228,0.019,0.0195,0.0168,0.0141,0.0135,0.0129,0.0121,0.0138,0.0115,0.0118,0.0134,0.0152,0.016,0.0167,0.0077,0.0077,0.0077,0,0,0.0256,0.0249,0.0264,0.0266,0.0264,0.0258,0.026,0.0251,0.0246,0.0243,0.0217,0.02,0.0176,0.0162,0.0151,0.0161,0.0154,0.0146,0.0186,0.0204,0.0212,0.0218,0.023,0.0238,0.0148,0.0148,0.0148,0,0.0264,0.0283,0.0269,0.0287,0.0295,0.0269,0.0292,0.0284,0.0272,0.0279,0.0252,0.023,0.0193,0.0202,0.0192,0.0171,0.0179,0.0177,0.0211,0.0218,0.0224,0.0235,0.0242,0.0151,0.015,0.015,0.015,0,0.0302,0.0316,0.0327,0.0342,0.0347,0.0361,0.0353,0.0356,0.0341,0.0337,0.0339,0.0294,0.0289,0.0259,0.0222,0.0244,0.0235,0.0216,0.0209,0.0236,0.0244,0.0251,0.0154,0.0153,0.0153,0.0152,0,0,0.0325,0.035,0.0354,0.0378,0.0379,0.0395,0.0407,0.0425,0.0461,0.0424,0.0469,0.0403,0.0386,0.037,0.0326,0.0319,0.0344,0.0283,0.0283,0.0309,0.0388,0.0368,0.0373,0.0336,0.0338,0.0339,0.0375,0,0.0362,0.0412,0.041,0.046,0.0489,0.0477,0.0506,0.0515,0.0516,0.0554,0.0505,0.0528,0.0428,0.0437,0.041,0.0375,0.0366,0.0336,0.0346,0.0346,0.0337,0.0382,0.0365,0.0395,0.0382,0.0383,0.0384,0,0.0404,0.0435,0.049,0.0543,0.0556,0.0585,0.064,0.0664,0.0694,0.0699,0.0698,0.0675,0.0659,0.0576,0.053,0.052,0.0456,0.0412,0.0413,0.0386,0.034,0.0365,0.0408,0.0257,0.0395,0.0394,0.0393,0,0.0444,0.0493,0.0544,0.0559,0.0611,0.0644,0.0677,0.0714,0.077,0.081,0.0868,0.0827,0.0855,0.0761,0.065,0.0603,0.0611,0.0542,0.0463,0.046,0.0444,0.0438,0.0357,0.0515,0.0515,0.0515,0.0514,0,0.0489,0.0535,0.0575,0.0609,0.0697,0.0709,0.0814,0.0837,0.0913,0.1021,0.096,0.1047,0.0906,0.0885,0.0734,0.064,0.0683,0.0491,0.0478,0.0459,0.0454,0.0318,0.0235,0.0516,0.0516,0.0515,0.0515,0,0.0537,0.0554,0.0629,0.0694,0.0722,0.0793,0.091,0.0999,0.105,0.1195,0.1225,0.1247,0.1224,0.1069,0.0956,0.079,0.059,0.0622,0.0605,0.0588,0.0337,0.0258,0.0184,0.0126,0.0538,0.0538,0.0537,0,0.0571,0.0611,0.0698,0.076,0.0799,0.0903,0.0992,0.1062,0.1169,0.1332,0.1424,0.1454,0.1505,0.1325,0.1045,0.0811,0.0634,0.0618,0.0505,0.0342,0.0245,0.0177,0.0129,0.0502,0.0501,0.0501,0.0501,0,0.0649,0.0675,0.0744,0.0857,0.0955,0.107,0.1202,0.1304,0.1425,0.1565,0.1749,0.1809,0.1654,0.1431,0.1095,0.0905,0.0507,0.0603,0.0448,0.0229,0.014,0.0073,0.045,0.0498,0.0498,0.0498,0.0498,0.0499,0.0718,0.0779,0.0862,0.0972,0.1084,0.1224,0.1337,0.1502,0.1693,0.1925,0.1977,0.2106,0.1736,0.1287,0.103,0.0497,0.0502,0.0302,0.0228,0.0181,0.0097,0.0465,0.0484,0.0484,0.0484,0.0484,0.0484,0,0.0798,0.0862,0.0973,0.1102,0.1229,0.1269,0.1471,0.1604,0.1844,0.2079,0.2251,0.2116,0.1684,0.1203,0.0483,0.0161,0.004,-0.0015,-0.0128,-0.0154,0.0189,0.0155,0.0088,0.0088,0.0088,0.0088,0.0088,0.0088,0.0849,0.0953,0.0997,0.1193,0.1292,0.1463,0.1576,0.1785,0.1972,0.223,0.2308,0.2341,0.1898,0.0713,-0.0044,-0.0195,-0.0416,-0.0457,-0.0543,-0.0344,-0.0321,-0.0299,-0.0351,-0.0524,-0.0525,-0.0865,-0.0869,-0.0871]}],[{"header":{"parameterUnit":"m.s-1","parameterCategory":2,"la1":30.2991,"la2":30.254,"lo1":-89.0895,"lo2":-89.0444,"dy":0.0017,"dx":0.0017,"nx":28,"ny":28,"refTime":"2025-08-09T03:00:00:Z","depth":"2","parameterNumber":2,"parameterNumberName":"U-component_of_CURRENTS"},"data":[0,0,0,0,0,0,0,0,0,0,0,0,0,0,0,0,0,0,0,0,0,0,0,0,0,0,0,0,0,0,0,0,0,0,0,0,0,0,0,0,0,0,0,0,0,0,0,0,0,0,0,0,0,0,0,0,0,0,0.2398,0.2398,0,0.2454,0.2455,0.2456,0.2487,0.2486,0.2486,0.2486,0.247,0.247,0.247,0,0,0,0,0,0,0,0,0,0,0,0,0,0.2374,0.2375,0.2398,0.2398,0.2398,0.2454,0.2455,0.2457,0.2487,0.2486,0.2486,0.2485,0.247,0.247,0.247,0,0,0,0,0,0,0,0,0,0,0,0,0,0.2408,0.2375,0.2398,0.2416,0.2418,0.2454,0.2455,0.2457,0.2487,0.2486,0.2486,0.2485,0.247,0.247,0.247,0.2483,0,0,0.247,0.247,0,0,0,0,0,0,0,0,0.2406,0.241,0.2413,0.2415,0.2417,0.2458,0.2441,0.246,0.2487,0.2467,0.2486,0.2485,0.2456,0.2457,0.2478,0.2483,0.2482,0.247,0.247,0.247,0.247,0,0,0,0,0,0,0,0.2404,0.2408,0.2426,0.2413,0.2416,0.2441,0.2445,0.2446,0.2467,0.2468,0.2469,0.2467,0.2457,0.2479,0.2478,0.2482,0.247,0.247,0.247,0.247,0.2544,0.2546,0,0,0,0,0,0,0.2383,0.2405,0.2424,0.2427,0.2403,0.2441,0.2446,0.245,0.2469,0.247,0.2467,0.2468,0.2479,0.2478,0.2477,0.2531,0.247,0.247,0.247,0.2542,0.2545,0.2547,0,0,0,0,0,0,0.2383,0.2385,0.2422,0.2413,0.2418,0.2441,0.2446,0.2451,0.2472,0.2468,0.2469,0.2481,0.2478,0.2477,0.2484,0.2528,0.247,0.247,0.254,0.2543,0.2546,0.2613,0,0,0,0,0,0,0.2382,0.2385,0.2392,0.2411,0.2418,0.2441,0.2446,0.2453,0.2469,0.247,0.248,0.2479,0.2478,0.2484,0.2484,0.2527,0.247,0.2538,0.2541,0.2545,0.2608,0.2618,0.2626,0,0,0,0,0,0.2381,0.2389,0.2392,0.2395,0.2423,0.2441,0.2448,0.2465,0.247,0.2482,0.2491,0.2478,0.2508,0.2485,0.2485,0.2529,0.2536,0.254,0.2545,0.2604,0.2616,0.2626,0,0,0,0,0,0,0.2385,0.2392,0.2397,0.2407,0.242,0.2444,0.2462,0.2467,0.2489,0.2497,0.2489,0.2488,0.252,0.251,0.2485,0.2564,0.2526,0.2531,0.2572,0.2583,0.2591,0.262,0.247,0,0,0,0,0,0.2386,0.2393,0.2404,0.2413,0.2424,0.2445,0.2457,0.247,0.2484,0.2495,0.2503,0.252,0.2541,0.2546,0.2563,0.2589,0.2606,0.2624,0.2633,0.264,0.2665,0.2729,0.2746,0.2561,0.2561,0.2561,0,0,0.2386,0.2394,0.2396,0.2414,0.2435,0.2461,0.2453,0.2479,0.2506,0.2487,0.2535,0.2547,0.2555,0.2599,0.2613,0.2593,0.27,0.2646,0.2652,0.2673,0.2735,0.2754,0.277,0.2564,0.2564,0.2563,0,0,0.2401,0.2404,0.2424,0.2437,0.2462,0.2478,0.2482,0.2515,0.2537,0.2571,0.258,0.2625,0.2635,0.2677,0.2689,0.2756,0.2745,0.2751,0.2817,0.2878,0.2894,0.2908,0.2942,0.2959,0.2754,0.2754,0.2754,0,0.2406,0.2424,0.2432,0.2459,0.247,0.2485,0.2512,0.2543,0.2574,0.2606,0.2592,0.2683,0.2689,0.2764,0.2794,0.2781,0.2793,0.2771,0.2891,0.2905,0.2919,0.295,0.2968,0.2758,0.2757,0.2757,0.2757,0,0.2434,0.2454,0.2468,0.2505,0.2524,0.2544,0.2577,0.2615,0.264,0.2677,0.2756,0.2786,0.2842,0.2856,0.2843,0.2948,0.2917,0.2894,0.2862,0.2941,0.2969,0.2986,0.2763,0.2762,0.2761,0.276,0,0,0.243,0.2477,0.2484,0.2502,0.2544,0.2559,0.262,0.2678,0.2734,0.2787,0.2869,0.2934,0.2965,0.2985,0.2991,0.305,0.3153,0.3012,0.3013,0.3044,0.3268,0.3134,0.3139,0.3139,0.3143,0.3145,0.3244,0,0.245,0.2506,0.2518,0.2561,0.2593,0.2617,0.267,0.273,0.279,0.2879,0.2947,0.3028,0.3006,0.3048,0.3106,0.3148,0.3203,0.3128,0.3189,0.3191,0.3062,0.3157,0.2902,0.2959,0.3261,0.3264,0.3266,0,0.2467,0.2509,0.2555,0.2599,0.2613,0.264,0.2726,0.2779,0.2907,0.2961,0.3064,0.3112,0.323,0.3191,0.3317,0.3262,0.3279,0.3302,0.3305,0.3175,0.3091,0.2932,0.2979,0.3294,0.3292,0.329,0.3288,0,0.2463,0.2519,0.2551,0.2564,0.263,0.2657,0.2706,0.2819,0.2879,0.3038,0.3112,0.3231,0.3314,0.3369,0.3405,0.3373,0.3521,0.348,0.3379,0.3368,0.3164,0.3128,0.3578,0.3577,0.3577,0.3577,0.3577,0,0.2459,0.2483,0.2552,0.257,0.2619,0.2672,0.2744,0.2822,0.2952,0.3045,0.3161,0.3249,0.3364,0.3443,0.3455,0.3467,0.3562,0.3421,0.3401,0.3176,0.3142,0.3437,0.342,0.3581,0.358,0.3579,0.3578,0,0.2428,0.2471,0.2508,0.2587,0.2613,0.2654,0.2746,0.2811,0.2947,0.308,0.3137,0.3299,0.3407,0.348,0.3585,0.3525,0.3553,0.3524,0.3238,0.3181,0.3348,0.3333,0.3447,0.3443,0.344,0.3438,0.3436,0,0.2406,0.243,0.2513,0.2535,0.256,0.2631,0.2683,0.2805,0.287,0.3088,0.3141,0.3309,0.3365,0.3459,0.343,0.3434,0.3514,0.3171,0.3071,0.3374,0.3343,0.3333,0.3322,0.283,0.2823,0.2817,0.2813,0,0.2364,0.2394,0.2433,0.2502,0.2541,0.2585,0.2667,0.2693,0.2847,0.2962,0.3078,0.3147,0.3253,0.3137,0.3147,0.3109,0.3148,0.3053,0.3483,0.2883,0.2795,0.2763,0.2773,0.2762,0.2767,0.2771,0.2774,0.2776,0.2334,0.2348,0.2408,0.2438,0.2486,0.2503,0.2505,0.2569,0.2637,0.2718,0.288,0.2897,0.2927,0.2806,0.2714,0.266,0.2877,0.2738,0.2755,0.2778,0.267,0.2579,0.2486,0.2489,0.2492,0.2495,0.2497,0,0.2296,0.2317,0.2343,0.2363,0.233,0.2428,0.2464,0.2419,0.2418,0.2503,0.2558,0.2367,0.2295,0.2342,0.2178,0.2148,0.2126,0.2058,0.202,0.2072,0.2118,0.1976,0.1608,0.1605,0.1602,0.16,0,0,0.2291,0.228,0.2272,0.218,0.22,0.2173,0.217,0.2131,0.2145,0.2051,0.2038,0.2189,0.2284,0.1928,0.1872,0.1718,0.188,0.1644,0.2365,0.2377,0.2419,0.2526,0.2367,0,0,0,0,0]},{"header":{"parameterUnit":"m.s-1","parameterCategory":2,"la1":30.2991,"la2":30.254,"lo1":-89.0895,"lo2":-89.0444,"dy":0.0017,"dx":0.0017,"nx":28,"ny":28,"refTime":"2025-08-09T03:00:00:Z","depth":"2","parameterNumber":3,"parameterNumberName":"V-component_of_CURRENTS"},"data":[0,0,0,0,0,0,0,0,0,0,0,0,0,0,0,0,0,0,0,0,0,0,0,0,0,0,0,0,0,0,0,0,0,0,0,0,0,0,0,0,0,0,0,0,0,0,0,0,0,0,0,0,0,0,0,0,0,0,0.007,0.007,0,0.005,0.005,0.005,0.0027,0.0027,0.0026,0.0026,-0.0005,-0.0005,-0.0006,0,0,0,0,0,0,0,0,0,0,0,0,0,0.007,0.007,0.007,0.007,0.0069,0.005,0.005,0.005,0.0027,0.0027,0.0026,0.0026,-0.0004,-0.0005,-0.0006,0,0,0,0,0,0,0,0,0,0,0,0,0,0.0062,0.0071,0.007,0.0056,0.0055,0.005,0.005,0.005,0.0027,0.0027,0.0026,0.0026,-0.0004,-0.0005,-0.0006,-0.0001,0,0,-0.0008,-0.0008,0,0,0,0,0,0,0,0,0.0063,0.0062,0.0058,0.0057,0.0055,0.0041,0.0039,0.0032,0.0027,0.0037,0.0026,0.0025,0.001,0.0008,0.0005,-0.0002,-0.0004,-0.0008,-0.0009,-0.0009,-0.0009,0,0,0,0,0,0,0,0.0063,0.0063,0.0062,0.0058,0.0056,0.0045,0.0043,0.0038,0.0026,0.0036,0.0035,0.0033,0.0009,0.0006,0.0004,-0.0004,-0.0008,-0.0009,-0.0009,-0.001,-0.0025,-0.0025,0,0,0,0,0,0,0.0068,0.0063,0.0062,0.0061,0.0058,0.0045,0.0044,0.0046,0.0026,0.0023,0.0034,0.0032,0.0008,0.0005,0.0003,0.0012,-0.0009,-0.001,-0.001,-0.0025,-0.0025,-0.0025,0,0,0,0,0,0,0.0068,0.0068,0.0063,0.0062,0.006,0.0046,0.0048,0.0046,0.0043,0.0025,0.0021,0.0034,0.0007,0.0004,0.0002,0.0011,-0.001,-0.0011,-0.0025,-0.0025,-0.0025,0.0028,0,0,0,0,0,0,0.0068,0.0068,0.0072,0.0062,0.0061,0.0068,0.0049,0.0046,0.0043,0.0041,0.0024,0.0021,0.0007,0.0003,0.0001,0.0009,-0.0011,-0.0025,-0.0025,-0.0025,0.0026,0.003,0.0033,0,0,0,0,0,0.0068,0.008,0.0072,0.0072,0.0066,0.0069,0.0067,0.0055,0.0044,0.0049,0.0035,0.0021,0.0002,0.0003,0.0001,0.0009,-0.0025,-0.0025,-0.0025,0.0024,0.0029,0.0033,0,0,0,0,0,0,0.0082,0.0078,0.007,0.0079,0.0076,0.0065,0.0069,0.0059,0.0052,0.0049,0.0028,0.0024,0.0024,0.0008,0.001,0.0002,-0.0016,-0.0017,0.0022,0.0026,0.0029,0.0051,-0.0012,0,0,0,0,0,0.0087,0.0093,0.0086,0.0093,0.0094,0.0081,0.008,0.0072,0.0064,0.0061,0.0049,0.0032,0.0022,0.0018,0.0007,0.0009,-0.0003,0.0008,0.0012,0.0015,0.003,0.0026,0.0031,-0.0025,-0.0025,-0.0025,0,0,0.0093,0.0092,0.0095,0.0096,0.0092,0.0105,0.008,0.0083,0.0093,0.0059,0.0069,0.0047,0.0025,0.0025,0.0023,0.0014,0.002,0.0015,0.0018,0.0031,0.0027,0.0033,0.0038,-0.0024,-0.0024,-0.0025,0,0,0.0116,0.0109,0.0126,0.0128,0.0127,0.0122,0.0125,0.0118,0.0114,0.0118,0.0094,0.008,0.0067,0.0054,0.0045,0.006,0.0039,0.005,0.0088,0.0084,0.0089,0.0094,0.0072,0.0074,0.0051,0.0051,0.0051,0,0.0124,0.0144,0.0131,0.015,0.016,0.0134,0.0159,0.0153,0.0145,0.0153,0.0128,0.011,0.0083,0.009,0.0087,0.0071,0.006,0.0077,0.0091,0.0095,0.0099,0.0075,0.0077,0.0054,0.0054,0.0053,0.0053,0,0.0163,0.0178,0.0189,0.0206,0.0215,0.023,0.0225,0.0228,0.0215,0.0212,0.0213,0.0173,0.0164,0.0144,0.0119,0.0131,0.0111,0.0097,0.0086,0.0108,0.0081,0.0082,0.0058,0.0057,0.0056,0.0055,0,0,0.0186,0.0213,0.0217,0.0241,0.0248,0.0266,0.0281,0.0299,0.0326,0.0294,0.0324,0.0279,0.0254,0.0241,0.0202,0.019,0.0187,0.0157,0.0155,0.0145,0.0171,0.012,0.0115,0.0181,0.0181,0.0182,0.0137,0,0.0222,0.0274,0.0276,0.0328,0.0359,0.0348,0.0375,0.0385,0.0383,0.0403,0.0355,0.0364,0.0292,0.0289,0.0262,0.0218,0.0194,0.02,0.0143,0.0141,0.0102,0.0117,0.0147,0.0107,0.0138,0.0138,0.0138,0,0.0264,0.0296,0.0354,0.0406,0.042,0.0444,0.0492,0.0514,0.0525,0.0526,0.0512,0.0477,0.0448,0.0384,0.0311,0.0321,0.0249,0.0203,0.02,0.014,0.0093,0.0091,0.0107,0.0139,0.0139,0.0139,0.0139,0,0.0301,0.0354,0.0406,0.0422,0.047,0.0497,0.0525,0.0553,0.0596,0.0609,0.0642,0.0586,0.0579,0.0486,0.0361,0.0346,0.0282,0.0249,0.0132,0.0126,0.0135,0.0129,0.0199,0.0199,0.0199,0.0199,0.0199,0,0.0346,0.0389,0.0428,0.0459,0.0535,0.055,0.0631,0.065,0.0697,0.0774,0.071,0.0746,0.0609,0.0544,0.041,0.0273,0.0314,0.0146,0.0119,0.015,0.0146,0.0163,0.0159,0.0197,0.0198,0.0198,0.0198,0,0.0383,0.0404,0.0472,0.053,0.0555,0.0613,0.0705,0.0769,0.0803,0.0901,0.0913,0.0881,0.0803,0.0645,0.0503,0.0352,0.0216,0.0153,0.0184,0.0161,0.0048,0.0047,0.0026,0.0024,0.0022,0.0021,0.002,0,0.0407,0.0442,0.0524,0.0574,0.0603,0.0688,0.0756,0.0815,0.0894,0.0988,0.1044,0.0999,0.0972,0.0725,0.0478,0.024,0.021,0.0087,0.0053,0.0058,0.0033,0.0036,0.0037,0.008,0.0079,0.0079,0.0078,0,0.0454,0.0477,0.0537,0.0634,0.071,0.0812,0.0912,0.0992,0.1085,0.1172,0.1259,0.1242,0.1018,0.0782,0.0441,0.0276,0.0123,0.0066,0.0093,0.011,0.0103,0.008,0.0082,0.0074,0.0074,0.0075,0.0075,0.0075,0.049,0.0538,0.0608,0.0706,0.0796,0.092,0.102,0.1142,0.1281,0.1407,0.1389,0.1371,0.1097,0.0664,0.0381,0.0088,0.0098,-0.0019,-0.0014,-0.001,-0.0005,-0.0015,-0.0066,-0.0066,-0.0066,-0.0067,-0.0067,0,0.0537,0.0591,0.0676,0.0796,0.0902,0.0945,0.1115,0.1223,0.14,0.1483,0.1539,0.1278,0.1011,0.0706,0.0272,-0.0009,-0.0012,-0.0096,-0.0031,-0.0024,-0.0019,-0.0012,-0.0077,-0.0078,-0.0079,-0.0079,0,0,0.0563,0.0646,0.0689,0.0858,0.0951,0.1103,0.1209,0.1369,0.1467,0.1538,0.1523,0.1455,0.1096,0.0774,0.0418,0.0177,0.0137,0.0124,0.0161,0.0287,0.0296,0.0053,0.0074,0,0,0,0,0]}],[{"header":{"parameterUnit":"m.s-1","parameterCategory":2,"la1":30.2991,"la2":30.254,"lo1":-89.0895,"lo2":-89.0444,"dy":0.0017,"dx":0.0017,"nx":28,"ny":28,"refTime":"2025-08-09T03:00:00:Z","depth":"4","parameterNumber":2,"parameterNumberName":"U-component_of_CURRENTS"},"data":[0,0,0,0,0,0,0,0,0,0,0,0,0,0,0,0,0,0,0,0,0,0,0,0,0,0,0,0,0,0,0,0,0,0,0,0,0,0,0,0,0,0,0,0,0,0,0,0,0,0,0,0,0,0,0,0,0,0,0.1453,0.1453,0,0.1485,0.1485,0.1486,0.1526,0.1527,0.1528,0.1528,0.1587,0.1588,0.1588,0,0,0,0,0,0,0,0,0,0,0,0,0,0.1415,0.1415,0.1453,0.1453,0.1454,0.1485,0.1485,0.1486,0.1526,0.1527,0.1528,0.1529,0.1587,0.1587,0.1588,0,0,0,0,0,0,0,0,0,0,0,0,0,0.1436,0.1415,0.1453,0.1479,0.1482,0.1485,0.1485,0.1486,0.1526,0.1527,0.1528,0.1529,0.1586,0.1587,0.1589,0.1571,0,0,0.1592,0.1593,0,0,0,0,0,0,0,0,0.1434,0.1437,0.1475,0.1477,0.1481,0.1505,0.1494,0.1516,0.1525,0.1507,0.1528,0.153,0.1562,0.1565,0.1565,0.1574,0.1576,0.1592,0.1593,0.1593,0.1594,0,0,0,0,0,0,0,0.1433,0.1435,0.1463,0.1475,0.1479,0.1486,0.149,0.1498,0.1526,0.1509,0.1512,0.1519,0.1564,0.1564,0.1567,0.1577,0.1592,0.1593,0.1594,0.1594,0.1661,0.1662,0,0,0,0,0,0,0.1432,0.1434,0.1462,0.1465,0.1462,0.1486,0.149,0.1494,0.1526,0.1532,0.1517,0.152,0.1561,0.1566,0.1569,0.1628,0.1593,0.1595,0.1595,0.166,0.1661,0.1663,0,0,0,0,0,0,0.1431,0.1434,0.1461,0.1452,0.1456,0.1485,0.1489,0.1494,0.1526,0.1532,0.1539,0.1549,0.1563,0.1568,0.1604,0.1627,0.1595,0.1596,0.1659,0.1661,0.1662,0.1695,0,0,0,0,0,0,0.143,0.1433,0.1451,0.1452,0.1457,0.1484,0.1488,0.1494,0.1527,0.1532,0.1561,0.1565,0.1564,0.1603,0.1605,0.1628,0.1597,0.1657,0.166,0.1661,0.1692,0.1697,0.1701,0,0,0,0,0,0.1428,0.1438,0.1451,0.1456,0.1475,0.1485,0.1488,0.1511,0.1528,0.1545,0.1567,0.1566,0.1617,0.1604,0.1607,0.1631,0.1657,0.1659,0.1661,0.169,0.1696,0.1701,0,0,0,0,0,0,0.143,0.1444,0.1458,0.1473,0.1491,0.1493,0.1513,0.1528,0.1556,0.1573,0.1578,0.1584,0.1624,0.1624,0.1609,0.1657,0.1638,0.1641,0.1658,0.1664,0.1669,0.1671,0.1598,0,0,0,0,0,0.1439,0.1454,0.1466,0.1483,0.1493,0.151,0.1524,0.1541,0.1558,0.1574,0.1593,0.1614,0.1629,0.1646,0.1658,0.1683,0.1705,0.1702,0.1707,0.171,0.1715,0.1792,0.1805,0.167,0.167,0.167,0,0,0.1445,0.1455,0.1465,0.1486,0.15,0.1513,0.1522,0.1551,0.157,0.1575,0.1617,0.1632,0.164,0.1669,0.1687,0.1677,0.1756,0.1713,0.1717,0.172,0.1796,0.181,0.1821,0.1672,0.1672,0.1672,0,0,0.1449,0.1474,0.1485,0.1499,0.1529,0.1539,0.1555,0.1578,0.1603,0.164,0.1647,0.1679,0.1706,0.1713,0.1719,0.1757,0.1777,0.1766,0.1794,0.1869,0.1881,0.1891,0.1918,0.1931,0.177,0.177,0.177,0,0.1462,0.147,0.1492,0.1501,0.1515,0.1553,0.1565,0.1591,0.1627,0.1652,0.1664,0.1717,0.1724,0.1752,0.1766,0.1767,0.1805,0.177,0.1876,0.1887,0.1898,0.1923,0.1937,0.1772,0.1771,0.1771,0.1771,0,0.1458,0.1479,0.1487,0.1512,0.1532,0.1551,0.1583,0.1623,0.1663,0.169,0.1746,0.1762,0.1798,0.1801,0.1796,0.1865,0.1865,0.1873,0.1863,0.1914,0.1936,0.195,0.1774,0.1774,0.1773,0.1773,0,0,0.1447,0.1479,0.1486,0.15,0.1539,0.1553,0.1597,0.1642,0.1693,0.1736,0.179,0.1815,0.1849,0.1857,0.1862,0.1914,0.2009,0.1933,0.1936,0.1959,0.216,0.1994,0.1993,0.2056,0.2059,0.2061,0.2139,0,0.1442,0.1453,0.1477,0.1505,0.1511,0.1561,0.1601,0.1655,0.1717,0.1785,0.1819,0.188,0.1864,0.1903,0.1951,0.2003,0.2052,0.1985,0.2107,0.2109,0.1957,0.2006,0.2071,0.2149,0.2152,0.2155,0.2156,0,0.1425,0.1434,0.1451,0.1501,0.1513,0.1549,0.1631,0.1678,0.1777,0.1831,0.1899,0.1942,0.201,0.2004,0.2116,0.2086,0.213,0.2159,0.2163,0.2008,0.197,0.2093,0.2182,0.218,0.2178,0.2176,0.2175,0,0.1386,0.1421,0.1437,0.1448,0.1508,0.1548,0.1604,0.17,0.1757,0.1884,0.1949,0.2029,0.2095,0.2167,0.2219,0.2201,0.2341,0.2323,0.2202,0.219,0.2303,0.229,0.2416,0.2416,0.2416,0.2416,0.2416,0,0.1352,0.1372,0.1429,0.1437,0.1484,0.154,0.1627,0.17,0.1811,0.1879,0.1985,0.2041,0.2156,0.2233,0.2263,0.2264,0.2385,0.2209,0.2208,0.2309,0.2298,0.2311,0.2298,0.2419,0.2418,0.2417,0.2417,0,0.1301,0.1339,0.1365,0.1435,0.1467,0.1509,0.1633,0.1685,0.1819,0.1913,0.1961,0.2094,0.2188,0.2261,0.2378,0.2309,0.2336,0.2311,0.2399,0.2401,0.2118,0.2106,0.2171,0.2166,0.2162,0.2158,0.2155,0,0.1272,0.1278,0.1356,0.1379,0.1419,0.1496,0.1543,0.1676,0.173,0.1915,0.1937,0.2083,0.2151,0.2174,0.2263,0.2297,0.2275,0.2264,0.2187,0.2106,0.2099,0.2093,0.2087,0.2149,0.2147,0.2146,0.2145,0,0.1211,0.1255,0.1274,0.1316,0.1368,0.1411,0.1495,0.1525,0.1671,0.1812,0.1878,0.1928,0.2019,0.2076,0.2125,0.2144,0.2252,0.2218,0.2226,0.2154,0.2079,0.2075,0.2074,0.213,0.2133,0.2134,0.2135,0,0.1174,0.1169,0.1202,0.123,0.1284,0.1287,0.1357,0.1413,0.1487,0.1687,0.1705,0.1858,0.1995,0.1998,0.2041,0.2045,0.2005,0.193,0.1952,0.197,0.1865,0.1737,0.1688,0,0,0,0,0,0.1118,0.1089,0.1106,0.1112,0.1159,0.1187,0.129,0.1362,0.1511,0.1512,0.1605,0.1679,0.1742,0.1823,0.1786,0.1935,0.2003,0.1879,0.1925,0.2049,0.2066,0.1959,0,0,0,0,0,0,0.1072,0.1075,0.1059,0.1,0.0987,0.1014,0.1075,0.1182,0.12,0.1372,0.1425,0.1556,0.1652,0.1742,0.1745,0.1767,0.1756,0.1978,0.1973,0.2039,0.2054,0.2068,0.1964,0,0,0,0,0]},{"header":{"parameterUnit":"m.s-1","parameterCategory":2,"la1":30.2991,"la2":30.254,"lo1":-89.0895,"lo2":-89.0444,"dy":0.0017,"dx":0.0017,"nx":28,"ny":28,"refTime":"2025-08-09T03:00:00:Z","depth":"4","parameterNumber":3,"parameterNumberName":"V-component_of_CURRENTS"},"data":[0,0,0,0,0,0,0,0,0,0,0,0,0,0,0,0,0,0,0,0,0,0,0,0,0,0,0,0,0,0,0,0,0,0,0,0,0,0,0,0,0,0,0,0,0,0,0,0,0,0,0,0,0,0,0,0,0,0,0.0057,0.0057,0,0.0049,0.0049,0.0049,0.0033,0.0032,0.0032,0.0032,0.0015,0.0015,0.0015,0,0,0,0,0,0,0,0,0,0,0,0,0,0.005,0.0051,0.0057,0.0057,0.0057,0.0049,0.0049,0.0049,0.0033,0.0032,0.0032,0.0032,0.0015,0.0015,0.0015,0,0,0,0,0,0,0,0,0,0,0,0,0,0.0049,0.0051,0.0057,0.0048,0.0047,0.0049,0.0049,0.0049,0.0033,0.0032,0.0032,0.0031,0.0015,0.0015,0.0015,0.0024,0,0,0.0014,0.0014,0,0,0,0,0,0,0,0,0.0049,0.0049,0.0049,0.0048,0.0047,0.0042,0.0041,0.004,0.0033,0.0038,0.0032,0.0031,0.0024,0.0023,0.0022,0.0023,0.0022,0.0014,0.0014,0.0014,0.0014,0,0,0,0,0,0,0,0.0049,0.0049,0.0054,0.0049,0.0048,0.0042,0.0041,0.0041,0.0033,0.0038,0.0036,0.0036,0.0023,0.0023,0.0022,0.0022,0.0014,0.0014,0.0014,0.0014,0.0032,0.0033,0,0,0,0,0,0,0.0051,0.005,0.0054,0.0054,0.0047,0.0042,0.0041,0.0044,0.0034,0.0032,0.0036,0.0035,0.0023,0.0022,0.0021,0.0045,0.0014,0.0014,0.0014,0.0032,0.0032,0.0033,0,0,0,0,0,0,0.0051,0.0052,0.0054,0.0051,0.0051,0.0043,0.0046,0.0044,0.0045,0.0033,0.003,0.0039,0.0023,0.0021,0.0027,0.0044,0.0014,0.0014,0.0031,0.0032,0.0033,0.0084,0,0,0,0,0,0,0.0051,0.0052,0.0055,0.0052,0.0051,0.0062,0.0046,0.0044,0.0045,0.0043,0.0034,0.0032,0.0022,0.0028,0.0027,0.0043,0.0013,0.003,0.0031,0.0032,0.0082,0.0087,0.0091,0,0,0,0,0,0.0051,0.0062,0.0056,0.0056,0.0056,0.0063,0.0062,0.0054,0.0046,0.0052,0.0046,0.0032,0.0034,0.0028,0.0027,0.0044,0.003,0.0031,0.0032,0.008,0.0086,0.0091,0,0,0,0,0,0,0.0062,0.0061,0.0054,0.0064,0.0064,0.006,0.0066,0.0058,0.0058,0.0056,0.0042,0.004,0.0052,0.004,0.0034,0.0051,0.0029,0.003,0.0065,0.0071,0.0076,0.0079,0.0013,0,0,0,0,0,0.0065,0.0072,0.007,0.0077,0.0079,0.0072,0.0073,0.0069,0.0067,0.0066,0.006,0.0055,0.0057,0.0057,0.0056,0.0067,0.0038,0.0076,0.008,0.0084,0.0087,0.0059,0.0062,0.0038,0.0038,0.0038,0,0,0.0071,0.0071,0.0075,0.0079,0.0079,0.0094,0.0072,0.0079,0.0093,0.0065,0.0083,0.0073,0.0064,0.0078,0.0081,0.0069,0.0075,0.0086,0.009,0.009,0.0061,0.0063,0.0065,0.0039,0.0038,0.0038,0,0,0.0092,0.0088,0.0103,0.0108,0.0111,0.011,0.0114,0.0113,0.0114,0.0127,0.0112,0.011,0.0114,0.0111,0.011,0.0139,0.0101,0.0138,0.0166,0.014,0.0141,0.0142,0.0103,0.01,0.014,0.014,0.014,0,0.0099,0.0118,0.0109,0.0128,0.0139,0.0121,0.0146,0.0147,0.0148,0.0153,0.014,0.0139,0.0132,0.0145,0.0156,0.015,0.0122,0.0147,0.0146,0.0146,0.0146,0.0105,0.0101,0.0143,0.0142,0.0142,0.0142,0,0.0133,0.015,0.0161,0.018,0.0191,0.0208,0.0211,0.0217,0.0213,0.021,0.0217,0.02,0.0197,0.0196,0.0188,0.0191,0.0165,0.0155,0.0131,0.0152,0.0107,0.0102,0.0146,0.0145,0.0145,0.0144,0,0,0.0149,0.018,0.0185,0.0206,0.0222,0.0237,0.026,0.0277,0.0293,0.0279,0.0292,0.0289,0.0266,0.0262,0.0243,0.0221,0.0199,0.0193,0.019,0.0154,0.0128,0.011,0.0102,0.0187,0.0186,0.0186,0.0094,0,0.0181,0.0228,0.0236,0.0285,0.0312,0.031,0.0338,0.0347,0.0346,0.0351,0.032,0.0326,0.0296,0.0294,0.0267,0.0219,0.0189,0.0224,0.0114,0.011,0.0092,0.0097,0.0185,0.009,0.0088,0.0088,0.0087,0,0.0214,0.0243,0.0296,0.0343,0.0355,0.0382,0.0417,0.044,0.0438,0.0434,0.0416,0.0387,0.0358,0.0327,0.0241,0.0263,0.0202,0.0155,0.0151,0.0113,0.0083,0.0066,0.0077,0.0078,0.0079,0.008,0.008,0,0.0234,0.0287,0.0332,0.0348,0.0396,0.0421,0.0448,0.0465,0.0493,0.0484,0.0488,0.0438,0.0416,0.0334,0.0237,0.0238,0.0129,0.0117,0.0037,0.0034,0.0055,0.0054,0.0052,0.0052,0.0053,0.0053,0.0053,0,0.0265,0.0303,0.0346,0.0372,0.0433,0.0455,0.0515,0.0527,0.0549,0.058,0.0532,0.0529,0.0418,0.0342,0.0245,0.0123,0.013,0.0039,0.0012,0.0077,0.0081,0.005,0.0051,0.0049,0.005,0.0051,0.0051,0,0.028,0.0308,0.0364,0.042,0.0445,0.0489,0.0565,0.0604,0.0617,0.065,0.0649,0.0594,0.0494,0.0368,0.0229,0.0141,0.0024,-0.0022,0.0047,0.0026,-0.006,-0.0055,-0.0124,-0.0125,-0.0126,-0.0127,-0.0128,0,0.0291,0.032,0.0394,0.0436,0.0467,0.0537,0.059,0.0634,0.0677,0.0689,0.0703,0.0621,0.0564,0.0353,0.0216,0.0015,-0.0009,-0.0081,-0.0063,-0.0057,-0.0077,-0.007,-0.0064,-0.013,-0.013,-0.013,-0.0131,0,0.031,0.0334,0.0382,0.0466,0.0531,0.0608,0.0683,0.0717,0.0764,0.0768,0.0748,0.0639,0.0521,0.0355,0.0197,0.0056,-0.004,-0.0094,-0.0092,-0.0075,-0.0066,-0.0082,-0.0075,-0.0134,-0.0134,-0.0134,-0.0133,0,0.0322,0.0355,0.0419,0.0497,0.0578,0.0657,0.0698,0.0751,0.0793,0.08,0.0787,0.0662,0.0591,0.0376,0.0232,0.0087,0.005,0.0002,-0.0002,0.0,0.0064,0.0096,0.0053,0,0,0,0,0,0.0335,0.0379,0.0448,0.0538,0.0618,0.067,0.0753,0.0788,0.0823,0.0816,0.0807,0.0698,0.0485,0.0398,0.025,0.0198,0.0015,0.0018,-0.0045,-0.0156,-0.0152,-0.0099,0,0,0,0,0,0,0.0346,0.041,0.0447,0.0558,0.0622,0.0719,0.0773,0.08,0.0803,0.0807,0.0704,0.065,0.045,0.0569,0.0244,0.02,0.0137,-0.0078,-0.0082,-0.0159,-0.0155,-0.0151,-0.0096,0,0,0,0,0]}]]